Theta_e
292 288 289 290 293 292 292 290 288 287 289 287 285 286 290 288 286 285 289 290 288 291 291 292 292 292 291 291 291 291 290 289 288 287 287 287 287 288 287 288 288 288 288 288 288 288 288 287 286 286 286 286 285 285 285 285 285 284 284 284 283 283 283 283 283 284 283 283 283 283 282 281 281 280 279 278 277 277 276 276 276 276 275 275 274 275 275
290 289 288 289 288 289 288 290 291 291 289 288 288 288 289 288 288 290 291 288 290 294 292 293 293 293 293 292 290 289 288 288 287 287 287 287 287 287 287 287 288 288 288 288 288 288 288 287 286 286 285 285 285 285 285 285 285 284 284 283 283 283 282 282 283 283 283 282 282 282 281 281 280 279 278 277 276 275 275 275 275 275 274 274 274 274 273
287 288 287 287 288 287 286 287 289 290 289 288 287 287 287 288 287 289 287 287 287 293 295 294 290 290 288 288 287 288 289 288 287 287 287 288 288 288 288 288 288 288 288 288 288 288 287 287 287 286 286 286 286 285 285 285 285 284 284 283 282 282 282 283 283 283 282 282 282 281 281 280 279 278 276 275 275 275 274 274 273 273 273 273 273 273 273
286 286 286 286 286 286 285 286 288 287 286 284 285 285 288 286 285 287 286 285 286 291 291 289 288 287 288 289 289 288 288 288 288 288 288 288 288 288 288 288 288 288 288 287 287 287 287 288 288 287 287 287 286 285 285 285 285 284 283 283 283 283 283 283 283 282 282 282 281 281 280 279 277 276 275 274 274 273 273 272 272 272 272 272 272 272 272
285 284 287 285 283 284 282 283 287 290 287 289 288 288 289 288 289 285 284 285 291 292 290 289 287 288 289 290 289 289 289 289 289 289 289 289 289 289 289 288 288 288 288 288 288 288 288 288 288 289 289 287 286 286 285 285 285 284 283 283 283 283 283 283 283 282 282 282 281 280 279 277 276 274 273 273 272 272 271 272 271 271 271 271 271 271 271
283 277 284 284 282 276 280 288 295 292 289 290 287 286 286 288 289 288 290 290 288 287 288 289 288 287 287 289 291 292 292 289 288 289 289 290 290 289 289 289 289 289 289 289 289 288 288 288 288 289 289 288 288 287 286 286 285 284 283 283 284 283 283 283 283 283 282 281 280 279 278 276 274 273 272 272 272 272 271 270 270 270 271 270 270 270 270
278 280 282 280 276 280 284 280 284 289 294 292 289 290 290 289 289 288 286 285 286 288 288 291 292 290 289 287 289 288 289 291 290 288 288 288 288 288 288 288 288 289 289 288 288 287 287 287 287 287 287 288 288 287 286 285 285 284 284 284 284 284 284 283 283 282 281 280 280 278 276 274 273 273 272 272 271 271 270 270 270 269 269 269 269 268 268
280 278 281 275 278 283 280 281 282 284 289 291 290 288 291 292 290 290 289 289 288 288 288 286 286 288 285 285 284 286 287 288 289 289 289 289 288 288 289 289 289 288 287 287 287 286 287 286 285 286 286 286 286 286 286 285 284 284 284 283 283 284 283 283 282 281 280 279 279 276 274 273 272 272 271 271 270 270 269 270 269 269 269 268 267 266 267
279 279 280 282 285 284 282 280 281 285 286 286 287 284 288 292 291 289 289 289 288 286 285 282 282 282 284 284 286 286 286 285 287 289 290 290 290 290 290 289 289 289 288 287 286 285 285 285 284 284 285 285 285 284 284 284 284 283 283 282 283 283 282 282 281 280 280 279 277 275 273 272 271 272 271 270 269 269 268 269 269 268 268 267 267 266 265
282 278 277 277 280 278 284 284 285 288 287 290 290 287 286 284 287 288 288 287 288 285 282 282 281 283 284 283 286 286 286 286 286 286 286 286 288 288 288 287 286 285 285 284 284 284 284 284 284 284 284 284 284 283 282 283 282 282 282 282 282 282 282 282 280 280 279 278 276 274 272 272 271 271 271 270 269 268 268 267 268 267 267 266 265 265 264
280 279 278 278 276 280 285 285 281 282 284 288 287 285 281 285 283 287 288 287 288 285 282 280 282 283 281 282 286 285 285 286 286 286 286 286 287 287 287 286 286 285 284 284 283 283 283 283 283 283 283 283 282 282 282 281 281 281 281 282 282 282 282 282 281 279 277 277 275 273 272 271 270 270 269 268 268 267 266 267 266 266 265 265 265 264 264
282 280 279 277 282 282 283 282 280 283 284 287 287 276 278 284 282 285 287 287 287 285 282 282 283 283 281 283 287 286 285 285 285 286 286 285 284 284 283 284 285 284 283 282 282 282 283 284 283 282 282 282 281 282 281 281 280 280 281 282 283 283 282 280 278 276 275 274 274 272 271 270 269 269 268 267 266 266 266 266 266 266 265 264 263 263 264
282 281 280 282 282 285 279 280 281 282 281 286 279 275 281 280 281 283 287 287 285 282 281 283 282 285 286 286 285 285 284 283 283 283 284 285 285 285 283 282 282 282 283 284 284 284 285 285 282 281 281 281 281 281 280 279 279 281 282 282 282 281 279 276 275 273 273 272 271 270 270 268 268 266 267 267 265 264 264 265 264 264 263 263 262 263 263
280 281 279 279 283 285 280 279 281 282 284 277 277 284 282 281 280 282 285 284 282 282 282 283 285 285 283 282 283 283 283 285 285 283 282 281 281 281 281 281 281 281 282 283 284 284 283 282 280 280 280 281 281 280 278 278 280 282 281 280 279 277 275 274 272 270 269 269 269 267 266 266 265 264 265 265 264 263 264 264 262 261 262 262 263 263 264
278 278 278 278 275 282 280 281 281 281 281 282 284 281 281 283 283 282 283 284 282 283 282 283 284 282 282 282 283 283 283 284 283 282 281 281 281 281 281 280 281 281 281 281 282 283 282 280 279 279 280 280 280 278 278 279 281 279 278 276 275 274 272 270 268 267 267 265 264 263 263 264 264 264 263 262 261 262 262 262 261 261 261 262 262 263 263
277 278 275 277 284 281 282 284 282 283 284 287 283 284 281 280 281 282 283 283 282 283 283 283 283 282 282 281 281 281 281 281 281 281 281 281 281 282 282 283 282 281 282 282 282 282 281 278 278 278 279 279 279 277 278 281 277 274 274 273 272 271 269 268 266 265 264 263 263 262 262 262 262 263 262 262 261 262 262 262 263 263 264 264 263 263 263
281 280 284 283 282 282 284 285 283 285 285 283 284 285 284 282 281 282 283 283 282 282 283 283 282 280 281 282 282 281 281 281 281 280 281 281 281 281 281 281 281 280 281 282 282 282 281 277 277 277 278 279 278 276 280 277 274 272 271 270 269 268 267 266 264 264 262 262 261 261 261 262 262 262 261 260 262 262 261 262 263 264 265 264 263 264 264
281 280 281 281 280 282 283 283 284 284 282 280 283 284 283 283 283 282 283 284 282 281 282 282 281 281 281 281 281 281 282 282 282 282 281 280 281 280 280 280 279 279 280 281 281 281 281 277 276 275 276 278 278 278 279 275 273 270 268 267 267 267 266 265 264 262 261 261 260 260 261 262 263 264 263 261 263 264 263 263 263 263 264 264 263 263 263
280 278 279 279 281 282 283 283 281 281 280 280 281 282 284 284 282 282 283 283 282 281 281 282 282 281 281 281 281 281 281 281 281 280 280 281 281 280 279 280 279 278 278 278 278 279 280 279 275 274 274 276 278 280 275 273 271 269 267 268 267 267 265 264 263 261 262 262 261 260 260 261 262 263 263 263 263 263 263 263 263 263 263 262 263 263 263
279 278 278 278 278 279 282 283 282 281 281 280 279 281 281 282 282 282 281 281 281 281 280 281 282 282 281 281 281 280 281 281 281 280 280 281 280 280 281 281 279 278 277 278 278 279 279 281 277 274 273 273 275 275 272 271 268 267 267 268 268 266 265 264 263 261 263 261 261 262 260 261 262 262 262 262 263 263 264 264 264 264 263 263 263 263 263
277 276 278 278 279 280 281 280 281 282 282 281 280 280 280 279 280 280 279 280 280 280 281 281 282 282 281 281 281 281 281 280 280 279 279 280 281 281 279 278 276 277 278 277 278 278 279 281 279 275 273 273 273 272 270 268 267 267 268 267 268 266 265 264 263 262 263 263 263 263 262 260 262 263 262 262 262 262 262 263 264 264 264 264 263 263 263
275 276 278 278 276 276 280 280 281 282 282 282 281 280 280 280 279 279 279 279 279 279 281 281 281 281 282 281 281 280 281 281 280 280 279 280 280 279 280 279 276 276 277 277 277 277 278 279 277 275 273 272 271 270 268 266 266 267 268 267 267 266 264 263 263 262 262 262 262 262 262 262 260 260 260 264 263 262 262 263 265 267 266 264 264 265 264
277 280 279 281 283 281 282 284 284 283 282 281 281 280 281 281 281 280 280 279 278 277 278 279 280 280 281 281 280 280 280 280 281 281 280 280 279 279 278 276 275 274 276 276 276 276 277 277 276 274 273 271 269 267 267 266 266 267 268 267 267 266 263 263 263 262 262 262 261 262 261 262 261 261 262 262 266 267 267 266 267 269 270 271 271 271 268
279 280 280 281 281 281 281 281 282 282 281 281 281 282 282 282 282 281 281 282 281 281 280 278 279 280 280 281 280 279 280 281 280 279 279 280 280 280 278 277 277 275 274 274 274 275 276 275 273 272 271 270 268 266 265 264 265 266 267 267 268 267 264 263 262 262 263 262 261 261 261 261 261 261 262 262 263 265 267 268 268 269 270 270 271 271 271
281 281 280 281 281 281 279 280 280 281 281 282 282 282 282 281 281 280 280 280 282 282 281 280 278 278 279 280 280 280 280 281 280 280 279 278 278 278 278 276 275 275 276 276 276 275 275 273 272 270 269 268 265 264 263 263 264 264 265 266 267 266 264 262 262 261 261 261 261 261 260 260 260 260 261 261 262 264 265 266 267 267 268 269 270 270 270
281 279 279 280 280 279 279 280 280 279 278 280 281 281 281 281 281 279 279 280 280 280 280 281 280 278 278 279 279 279 279 280 279 277 277 276 276 275 275 275 275 276 276 275 275 274 272 271 270 269 267 266 263 262 261 261 262 263 263 264 265 265 263 262 262 262 262 262 261 261 261 261 261 260 260 261 261 261 261 262 263 265 266 266 266 266 266
279 279 279 279 279 278 278 280 281 282 280 279 280 281 281 280 279 279 280 279 279 279 279 280 281 279 277 277 277 278 278 278 276 276 277 276 276 276 275 274 275 274 273 273 271 270 269 268 266 266 265 262 260 260 260 260 261 261 261 262 262 260 259 260 261 262 262 262 261 261 261 260 260 259 259 259 259 258 259 260 261 262 262 262 264 264 263
280 279 282 279 279 280 280 280 282 282 279 279 278 279 278 277 276 275 275 276 275 275 275 275 275 274 275 276 275 275 275 274 275 276 276 275 275 272 269 269 270 270 269 268 267 265 264 264 263 263 261 258 259 258 259 259 260 260 260 260 261 262 260 259 260 261 261 261 261 261 260 260 260 260 260 259 258 258 258 258 258 258 258 260 260 261 263
280 279 280 282 283 283 281 280 279 279 278 277 277 277 276 275 275 275 276 278 278 277 277 276 274 274 276 276 275 275 275 276 275 275 275 273 268 267 265 264 263 262 263 262 261 260 261 261 260 260 258 257 257 257 258 258 259 260 259 260 261 261 261 260 260 260 260 260 260 260 261 259 259 259 258 258 258 258 258 258 257 258 258 258 258 258 261
279 279 279 279 280 279 280 280 280 279 278 277 276 275 276 277 276 277 277 278 277 276 278 278 275 273 273 273 273 274 274 275 275 273 269 264 262 261 261 262 261 261 261 260 258 258 259 259 259 259 257 256 256 257 257 258 259 259 258 259 260 260 261 260 259 259 259 259 258 258 259 259 259 259 258 258 257 257 257 257 257 257 257 257 258 258 258
277 278 277 278 278 277 277 279 280 278 277 275 276 275 274 273 276 278 278 278 276 276 276 275 275 273 271 272 273 272 271 271 269 265 262 261 260 260 261 263 267 269 268 264 257 257 257 258 258 258 256 256 256 256 257 258 259 258 258 259 258 258 259 259 260 259 259 258 258 258 258 258 259 258 257 257 257 257 257 257 256 257 257 257 256 256 257
276 274 273 275 276 275 276 276 277 277 277 275 272 274 275 274 273 274 276 277 277 277 276 274 273 274 274 272 269 267 267 264 260 259 259 258 259 258 257 257 258 257 256 256 257 257 257 257 256 256 255 255 255 255 257 258 259 259 259 258 258 258 259 260 260 260 258 258 258 257 257 257 257 257 257 257 257 257 256 256 256 256 256 256 256 256 257
273 271 272 273 270 270 273 275 275 275 276 274 275 277 277 277 277 277 277 277 276 274 274 274 274 273 270 268 267 265 262 259 258 257 256 256 255 255 255 256 255 255 255 256 256 256 257 257 256 256 255 255 255 256 257 257 259 259 259 259 259 259 258 259 260 260 259 258 258 257 257 257 257 257 256 256 256 256 256 256 256 256 256 256 256 257 257
278 279 280 279 277 277 276 276 276 275 276 276 276 276 275 275 275 276 275 275 272 272 272 272 271 266 264 264 263 261 260 262 264 261 256 255 254 254 254 255 255 255 255 256 257 258 257 257 257 257 257 256 256 256 256 257 258 259 258 258 258 258 258 258 258 259 258 258 258 257 257 257 257 257 257 256 256 256 255 255 255 255 255 256 256 256 257
281 281 281 278 277 279 279 279 277 276 275 275 273 273 274 274 273 274 272 272 272 271 266 262 260 259 261 261 261 260 262 265 264 259 256 255 255 254 255 255 255 255 255 256 256 256 256 256 256 257 257 257 257 257 257 257 257 257 257 256 256 257 257 257 257 257 257 258 258 258 257 257 256 256 256 256 256 256 255 255 255 255 255 255 256 256 256
273 275 274 273 271 270 270 270 269 270 272 272 272 269 269 269 269 269 269 267 262 260 261 260 259 259 259 260 260 260 260 258 257 256 255 255 255 257 257 256 257 256 255 255 255 254 256 256 255 256 257 257 257 256 256 256 256 256 255 256 255 256 256 255 256 256 256 257 256 257 257 256 255 255 255 255 255 255 255 254 254 254 255 255 256 256 256
261 268 269 266 260 259 257 256 255 257 261 262 261 261 262 258 258 255 254 256 257 257 256 258 260 259 256 255 254 255 256 257 257 256 255 255 256 256 256 256 257 257 258 257 255 255 255 256 255 255 257 257 257 255 255 254 255 255 255 255 255 255 255 255 255 255 255 255 255 255 255 255 255 255 255 254 254 254 254 254 254 254 255 255 255 255 255
255 255 256 257 254 254 253 252 252 252 254 253 251 252 252 252 253 253 254 254 255 256 257 256 255 254 253 253 253 251 251 252 253 253 253 254 255 255 256 257 258 258 259 257 255 254 255 254 254 253 255 256 256 255 255 254 254 254 255 254 254 254 254 254 254 255 255 255 254 254 254 254 254 254 254 254 254 254 254 254 254 254 254 255 255 255 255
260 257 255 253 253 253 252 252 251 250 251 252 251 252 252 253 253 254 254 253 253 254 255 254 254 254 253 252 251 250 248 249 250 251 251 250 252 255 255 254 254 254 254 254 253 253 253 253 253 252 253 253 253 253 253 254 255 255 254 254 253 254 254 254 255 255 254 254 254 253 253 253 253 253 253 254 253 253 253 253 253 254 254 254 254 254 254
256 255 253 254 252 253 252 251 250 250 251 251 252 252 252 253 254 254 254 254 254 254 255 256 255 254 252 251 251 250 248 247 248 249 249 250 251 252 253 252 251 251 252 252 253 253 252 253 252 253 253 253 253 253 253 253 254 255 254 254 253 254 254 254 254 254 254 254 253 253 253 253 253 253 253 253 253 253 253 253 252 253 253 253 254 254 254
255 255 254 253 252 252 252 251 250 250 249 250 250 251 253 254 254 253 252 252 253 253 253 255 254 252 252 252 251 248 246 246 245 245 247 251 253 255 256 255 253 252 250 251 251 252 252 253 252 253 253 254 254 254 253 253 253 254 254 254 253 254 254 254 253 253 253 253 253 253 253 253 253 253 253 253 253 253 253 253 253 253 253 253 253 254 254
253 254 253 253 252 252 251 251 251 251 250 249 250 251 252 253 252 251 252 252 252 252 251 251 252 251 249 248 247 246 245 244 244 245 245 251 254 255 255 254 253 252 253 252 252 252 252 251 251 253 253 254 254 253 253 254 253 253 254 254 254 253 253 253 253 253 253 253 253 253 253 253 252 252 252 252 252 252 252 252 253 253 253 253 253 253 253
251 250 251 251 251 250 250 250 250 250 250 250 249 249 250 250 251 251 251 251 251 251 250 249 249 248 248 248 248 248 247 245 246 246 249 248 247 249 253 254 253 251 251 252 252 253 253 253 252 252 253 253 254 253 253 255 255 254 253 253 253 253 253 253 253 253 253 253 253 253 252 252 252 252 252 252 252 252 253 252 252 253 253 253 253 253 253
249 250 250 250 250 250 250 250 250 251 250 250 249 249 249 249 250 251 251 251 251 251 250 250 249 248 248 249 250 251 251 250 252 251 254 253 252 250 247 250 252 250 250 252 253 253 253 253 253 253 252 253 253 254 255 256 255 255 253 252 252 253 253 253 253 253 253 253 253 253 253 253 252 252 252 252 252 253 253 252 253 253 253 253 253 253 253
249 249 250 250 250 252 251 251 251 250 250 250 249 249 248 248 248 249 250 251 250 251 251 251 250 251 251 252 253 253 253 253 253 253 255 255 254 254 251 249 251 251 251 252 253 253 253 253 252 252 254 254 254 254 256 256 256 255 255 255 253 253 253 253 253 253 253 253 253 253 253 253 253 253 253 253 253 253 253 253 253 253 253 253 254 253 253
248 249 250 250 249 249 250 249 250 250 251 251 250 250 248 247 248 248 249 250 251 252 252 252 252 252 252 252 251 250 250 250 249 248 251 253 254 254 252 251 251 251 252 253 254 253 253 253 253 254 254 255 255 256 257 256 256 256 255 255 254 253 253 254 254 254 254 254 254 254 254 254 254 254 254 253 253 253 253 253 253 253 254 254 254 254 254
249 249 248 248 249 249 250 251 252 252 253 252 251 250 248 247 247 249 247 246 247 248 249 251 251 251 251 251 252 254 254 253 253 251 249 250 249 250 251 251 251 252 253 253 253 253 254 254 254 254 255 255 255 256 256 256 256 255 255 255 254 254 254 254 254 254 254 254 254 254 253 253 254 254 254 253 253 253 253 253 253 253 254 254 253 253 252
247 247 247 248 248 248 249 249 250 250 249 250 249 249 247 247 248 248 248 248 248 248 248 248 248 247 246 247 246 249 252 255 254 253 251 249 249 247 248 249 251 251 252 253 254 254 254 254 255 255 255 256 256 256 256 256 256 255 255 254 254 254 254 254 254 254 254 254 254 254 254 254 254 254 254 254 254 254 254 253 253 253 253 253 253 253 253
246 247 247 247 248 248 249 250 250 250 250 249 249 249 248 249 250 250 250 251 251 251 251 249 248 248 247 246 247 250 248 247 252 254 251 250 251 252 252 252 252 252 253 254 252 253 253 253 254 255 255 255 256 256 255 255 255 255 255 255 254 255 254 255 255 255 255 254 254 254 254 254 254 254 254 254 254 254 253 253 253 253 253 253 252 252 252
247 248 249 250 250 250 250 252 251 251 251 251 250 251 251 253 253 253 252 251 251 251 251 252 251 251 250 250 250 248 246 246 249 250 250 251 250 250 251 251 251 252 253 254 252 254 254 254 254 254 255 255 256 255 255 255 254 254 254 254 254 255 255 254 254 254 254 254 254 254 254 254 254 253 253 253 253 253 253 253 252 252 251 251 251 251 252
249 249 249 248 248 247 247 249 250 251 251 251 251 251 252 253 252 252 252 251 251 252 252 252 252 251 250 251 251 250 248 246 247 249 251 252 252 252 253 254 254 254 255 255 254 254 254 253 253 253 254 254 254 254 255 254 254 254 254 254 254 254 254 254 254 254 254 254 254 254 254 254 253 253 253 252 252 252 252 251 251 251 251 251 251 251 251
248 248 248 249 248 248 248 248 249 250 250 250 251 251 252 252 252 251 252 251 251 251 251 251 252 251 249 249 251 251 250 249 249 251 252 253 254 254 254 254 255 254 254 253 253 252 253 253 253 253 253 253 254 254 253 253 253 254 254 254 254 254 254 253 253 253 253 253 253 252 252 252 252 252 252 252 252 251 251 251 251 251 251 251 251 251 250
Wind_Speed
13 1 3 5 6 11 12 17 14 16 15 14 21 19 10 10 13 14 10 15 13 13 14 13 11 13 12 11 10 8 6 6 7 7 9 10 11 11 13 15 14 14 13 13 13 12 12 12 13 13 12 11 10 9 10 11 11 12 11 11 12 12 11 10 9 8 7 5 5 6 7 7 6 6 6 5 4 4 3 2 1 2 1 2 3 3 3
12 8 5 5 6 4 1 10 15 15 17 20 19 18 16 15 15 16 6 9 13 5 6 12 11 7 6 5 4 5 6 8 9 9 9 10 10 12 13 14 13 11 11 9 10 11 11 14 14 14 12 11 12 13 13 13 12 11 10 11 12 11 10 9 7 8 7 5 6 7 7 7 7 7 6 5 5 4 4 3 2 2 2 3 4 4 4
10 7 4 5 6 7 7 7 9 13 14 10 17 16 13 12 13 11 0 7 12 6 10 9 5 5 5 5 6 8 7 8 10 10 10 9 9 10 11 11 12 11 10 9 10 12 13 14 14 14 13 13 13 14 14 14 13 12 11 11 10 10 11 9 8 7 7 7 7 8 7 7 5 6 6 5 4 4 4 3 3 3 2 4 4 4 4
10 6 8 6 2 1 5 10 14 13 11 10 12 10 12 13 14 12 8 12 14 4 7 6 5 7 9 9 9 7 6 9 9 10 9 9 9 10 10 10 9 10 10 11 11 13 13 13 14 13 13 13 14 15 13 12 11 9 9 9 11 11 10 9 9 8 7 7 8 8 7 6 6 5 5 5 4 4 4 4 3 3 3 4 4 4 4
12 3 9 8 4 1 6 20 25 15 12 11 8 11 14 17 15 12 13 15 10 6 10 8 6 8 7 7 8 7 6 8 9 9 8 8 8 8 8 9 10 10 11 12 13 13 13 14 14 16 14 12 13 12 11 10 8 10 11 11 11 11 9 9 9 8 8 7 7 6 6 6 6 5 5 5 5 5 4 4 3 4 4 4 4 4 4
2 2 7 8 7 9 18 5 10 20 18 20 16 19 19 17 15 10 8 6 3 7 9 12 11 8 7 10 7 3 6 8 7 6 6 7 6 6 6 7 8 9 8 9 10 12 11 11 11 10 10 11 10 9 9 9 11 11 11 11 11 11 9 9 9 9 8 6 7 6 6 6 6 6 6 5 5 4 4 4 4 4 4 4 4 4 5
4 5 10 7 13 20 1 4 5 8 19 19 22 21 18 17 14 8 2 2 6 11 11 9 9 8 3 2 4 5 5 5 6 8 8 8 7 7 7 7 8 8 8 8 7 8 9 10 8 8 8 9 7 7 9 9 10 10 10 11 10 10 9 9 8 6 8 7 7 6 6 6 6 6 5 5 5 4 4 4 4 4 4 5 4 4 5
4 4 10 9 12 2 0 4 3 3 6 3 10 13 13 11 13 15 14 12 8 7 7 4 4 5 3 1 2 4 3 5 6 7 6 6 7 7 8 9 8 8 9 10 10 9 6 7 7 8 9 8 9 9 8 9 9 10 9 8 10 8 8 7 8 8 7 7 7 7 7 7 7 6 5 5 5 4 4 3 3 3 3 3 4 5 5
8 6 10 8 6 4 5 2 3 7 8 9 12 8 11 16 13 10 12 14 8 6 5 6 5 5 3 1 5 6 7 7 8 7 6 6 6 6 4 5 5 5 5 6 6 5 6 7 8 8 8 8 9 8 8 8 8 7 7 8 9 9 8 9 9 9 9 8 8 8 7 7 6 6 6 5 5 4 4 4 4 4 4 4 4 5 5
5 4 4 3 4 11 5 3 4 8 4 4 7 5 5 2 6 10 11 12 10 7 5 5 6 5 2 4 7 7 9 10 9 4 1 1 2 2 2 2 2 3 4 4 4 6 7 8 7 7 8 9 9 8 8 7 7 8 7 10 10 9 10 8 9 9 9 8 8 8 8 9 8 6 5 4 5 4 5 4 4 4 4 4 4 5 5
6 5 8 7 9 5 3 2 1 1 1 8 7 3 6 2 7 11 14 12 7 10 10 6 6 4 5 7 5 5 7 7 6 8 6 5 3 3 4 5 6 6 5 5 6 5 6 7 7 8 8 9 8 9 8 8 8 7 10 10 10 10 11 9 8 8 6 7 8 9 9 8 7 7 6 5 4 4 3 3 3 3 4 4 4 4 5
5 7 6 8 2 2 0 2 2 2 2 3 5 1 4 4 8 5 6 8 6 6 8 8 7 8 6 9 3 7 8 9 8 8 7 6 5 4 4 3 2 5 7 7 5 6 7 8 8 9 9 8 8 9 8 8 8 8 10 11 11 9 7 6 6 5 6 12 11 14 12 9 6 5 4 5 5 5 4 3 4 4 4 4 5 4 4
7 8 6 2 3 1 1 2 3 3 2 2 7 7 1 1 2 3 5 5 5 8 9 7 7 9 2 2 4 4 7 6 4 3 1 3 5 5 5 5 6 5 6 7 8 10 8 7 8 8 8 7 7 7 7 9 10 11 11 8 6 7 6 5 6 7 6 9 12 11 8 9 6 5 4 5 5 5 4 4 4 4 4 4 4 5 5
6 6 4 4 2 2 4 2 3 4 5 5 8 1 1 8 5 4 4 5 7 12 17 11 8 4 5 3 4 5 7 7 6 6 5 3 1 2 3 5 6 4 5 6 5 3 3 5 7 8 7 11 7 8 6 8 11 9 5 6 6 6 6 6 7 8 9 7 8 8 7 6 6 5 4 4 4 5 4 4 5 5 4 4 4 4 4
3 1 5 2 8 1 7 10 4 4 4 2 4 3 2 1 5 7 5 6 8 12 11 10 5 6 4 4 6 5 5 6 6 7 7 6 6 6 5 4 6 6 5 7 8 8 6 6 7 6 10 12 9 8 9 16 8 5 5 6 5 6 6 9 11 11 9 10 9 6 7 5 6 6 5 4 4 4 4 4 4 4 5 4 4 4 3
4 7 8 6 1 6 12 15 9 9 3 3 8 7 3 1 4 6 4 5 8 9 8 9 6 4 5 2 2 4 2 3 3 5 4 3 2 3 5 4 7 7 7 6 7 7 6 6 5 6 11 10 9 10 16 7 6 4 5 5 6 9 10 10 11 8 10 8 6 5 6 6 5 5 5 5 4 4 4 4 4 4 4 4 3 4 3
6 4 2 1 1 9 12 2 4 6 5 2 7 7 8 8 5 5 4 7 7 10 7 7 9 6 6 7 7 8 8 7 7 8 8 7 8 8 7 7 7 7 9 9 8 7 6 7 6 7 8 11 11 12 11 7 9 10 10 10 11 12 11 10 10 7 6 5 6 5 5 6 7 6 5 5 5 4 4 4 4 4 3 3 3 3 3
2 3 2 2 2 3 7 4 3 5 6 2 3 6 4 6 7 9 9 8 7 8 6 6 4 6 8 7 5 5 5 7 5 4 2 4 3 2 2 3 7 7 6 4 4 7 8 7 7 6 9 9 12 14 6 8 8 12 11 12 11 13 11 8 8 8 8 6 5 5 6 5 5 5 6 6 5 4 4 4 4 4 3 2 3 3 3
3 4 4 2 2 1 9 5 3 4 4 4 4 5 6 7 7 6 4 5 8 9 9 8 9 9 6 7 7 7 5 6 6 6 8 7 8 8 8 10 6 5 6 8 9 10 10 8 9 7 11 10 11 4 6 7 10 12 11 12 13 10 10 7 7 7 8 7 6 6 6 5 5 5 5 5 5 4 4 4 4 3 3 3 3 3 3
4 1 3 1 3 3 4 2 4 4 4 2 3 1 1 1 3 4 5 4 5 6 6 9 9 8 6 7 7 7 7 7 6 6 7 7 6 6 7 3 6 5 7 10 11 11 12 10 10 10 11 12 11 6 5 8 11 11 11 12 11 12 10 8 7 8 7 9 9 6 7 6 6 5 5 5 5 6 6 5 4 4 4 4 4 3 2
3 3 2 3 1 1 5 4 6 3 5 7 5 3 1 3 6 5 3 1 4 8 8 7 7 8 7 8 8 7 6 6 7 9 8 7 8 6 5 6 7 9 10 11 12 12 13 9 7 9 11 10 8 8 8 9 11 13 11 12 10 12 9 6 6 6 6 6 6 6 5 5 4 4 5 6 5 4 3 2 3 3 3 4 3 3 3
3 5 7 8 4 2 4 7 11 10 7 6 5 4 4 4 6 5 8 5 2 3 2 5 7 8 8 7 7 6 9 8 9 8 8 7 7 5 5 3 6 8 8 10 11 12 12 7 7 9 10 9 7 8 8 10 10 12 11 9 9 9 7 7 6 6 5 5 5 4 5 5 4 4 5 8 6 5 4 7 12 12 10 6 5 4 6
3 4 8 9 2 2 5 9 8 6 7 7 9 9 10 9 8 8 9 7 4 5 7 5 8 10 7 9 8 8 7 8 8 8 9 8 8 8 5 6 7 9 10 10 9 10 11 7 8 8 8 7 7 8 9 10 10 11 9 8 6 5 6 7 8 6 6 5 5 4 4 4 4 4 3 5 12 15 12 10 10 12 14 16 16 15 9
2 2 9 9 5 5 3 5 7 7 9 11 12 10 7 7 9 10 10 10 11 10 7 8 8 9 8 7 7 9 11 8 7 8 8 8 8 6 3 6 7 8 8 8 10 14 9 5 7 6 7 6 6 7 8 8 6 7 9 8 7 7 6 4 6 5 4 5 5 5 4 4 4 3 3 3 3 10 14 13 12 13 14 14 14 13 14
4 4 6 9 8 4 2 3 3 2 6 9 8 10 10 9 8 10 12 10 8 8 6 9 8 8 8 9 7 8 11 10 8 9 8 7 5 5 7 5 6 9 11 10 8 7 5 5 5 5 6 5 4 6 8 8 8 9 9 7 5 3 3 5 5 6 5 5 5 5 5 5 4 4 4 3 3 2 4 10 11 12 13 14 14 13 12
5 5 4 4 3 2 2 3 2 3 5 7 7 5 6 6 8 6 11 10 8 8 7 8 8 9 10 11 9 8 7 9 5 4 3 4 4 4 6 10 11 6 4 4 5 5 5 6 6 5 6 4 5 6 7 8 8 8 7 6 4 4 4 6 5 5 5 4 4 4 4 4 4 4 4 4 3 2 2 2 4 7 8 5 2 0 2
3 7 8 5 1 3 4 8 6 7 9 8 9 9 4 3 6 5 4 4 5 3 6 9 7 3 4 7 7 6 8 6 1 5 5 6 7 9 5 2 3 3 4 4 4 4 4 4 4 4 4 1 3 5 7 7 8 7 6 6 3 4 6 6 3 3 3 3 4 3 3 4 4 4 4 3 3 4 4 4 3 3 3 3 4 4 4
6 7 8 8 6 8 8 11 10 2 5 9 9 7 3 4 3 3 4 4 4 5 6 5 5 4 7 6 6 7 4 5 8 5 6 8 3 0 0 0 0 0 2 2 1 1 1 0 1 1 0 2 3 5 5 7 7 7 5 4 3 4 4 5 3 3 3 3 3 4 4 4 3 3 3 3 3 3 3 4 4 4 4 3 2 4 8
8 8 7 7 7 3 3 3 3 4 5 2 2 1 4 4 5 5 7 8 7 3 5 6 6 7 7 5 5 6 6 5 6 7 4 1 1 1 2 2 3 3 2 2 2 2 2 1 2 2 1 2 3 4 5 6 5 4 4 4 3 3 3 3 3 3 3 3 3 3 4 3 3 3 3 3 2 3 3 4 4 4 4 4 4 3 3
7 7 7 8 7 1 2 4 6 6 5 5 6 4 4 5 5 6 9 8 5 7 8 5 3 6 7 6 6 7 9 8 4 0 2 2 2 2 3 4 5 4 3 2 1 2 2 2 2 2 2 2 3 3 4 4 3 4 4 3 2 2 2 3 3 3 3 3 3 4 4 4 4 4 4 4 4 4 4 4 5 4 4 4 4 4 4
8 6 7 8 5 2 6 10 6 2 4 4 7 4 3 3 6 10 10 9 4 5 7 6 6 4 5 8 7 5 3 1 1 2 4 3 3 2 1 0 2 2 1 2 3 2 4 4 3 3 2 3 3 3 4 3 4 4 3 2 2 2 3 5 4 3 3 3 4 4 4 4 4 3 3 3 4 4 5 4 4 5 4 4 4 5 5
5 4 3 5 3 3 6 5 7 7 6 4 4 6 8 8 9 12 10 7 9 10 8 5 4 8 8 3 3 4 3 3 4 5 5 4 3 3 3 4 5 5 5 4 3 3 3 4 4 2 2 2 3 3 3 3 3 3 2 3 2 2 4 6 4 5 4 3 3 3 2 3 4 4 4 4 5 5 4 4 5 5 5 5 5 5 4
6 2 3 4 3 3 7 7 6 8 6 7 10 9 7 8 7 7 8 6 4 4 4 7 7 5 3 4 5 6 5 6 6 7 6 6 4 3 3 3 5 5 5 3 3 3 4 4 4 2 2 3 3 3 2 2 2 2 2 2 2 2 2 5 4 3 3 3 4 4 4 4 3 3 4 4 4 3 4 5 5 6 6 5 6 5 4
11 10 10 9 11 10 10 11 8 8 6 5 6 5 5 6 8 7 7 5 4 4 6 6 4 2 4 5 5 6 7 6 3 4 6 5 4 3 3 4 5 5 5 4 3 3 3 3 4 4 3 3 3 3 3 2 2 1 2 2 2 2 2 2 3 4 3 3 4 5 5 3 4 6 5 4 5 5 5 6 6 6 7 7 6 5 6
9 9 3 2 5 6 5 5 4 6 6 5 5 6 6 5 5 7 5 4 5 4 1 3 4 4 5 5 6 6 6 5 3 8 6 4 4 4 4 5 5 5 5 5 4 4 4 3 3 3 4 3 3 2 2 2 2 2 2 2 2 2 2 2 2 3 4 4 5 5 5 5 6 6 6 6 7 6 7 7 7 7 7 7 6 4 5
1 2 1 1 0 0 0 1 1 1 3 3 3 4 5 5 5 4 4 2 2 3 4 5 6 6 5 4 4 4 5 4 7 6 5 5 5 4 4 4 4 5 5 5 5 3 2 3 3 3 2 2 2 2 2 2 1 1 2 2 2 1 1 2 2 2 2 4 5 5 5 5 3 3 5 6 6 6 7 7 7 7 7 7 6 5 4
8 4 3 4 4 5 6 6 5 4 2 1 1 1 0 2 2 3 4 5 4 3 4 5 5 6 7 6 6 6 5 4 4 5 5 5 4 4 5 6 5 3 3 4 2 3 4 4 4 3 2 2 2 2 1 2 1 1 1 1 1 1 1 1 1 1 2 3 4 4 4 3 5 5 5 5 7 6 6 6 6 6 7 7 7 7 6
7 9 8 7 6 8 6 5 4 5 3 6 6 5 3 3 3 6 7 6 5 3 4 6 7 8 7 6 7 8 7 6 7 8 7 6 5 7 5 4 2 2 2 3 3 2 2 2 3 2 1 1 1 1 2 2 3 1 1 1 1 1 1 1 1 2 3 3 2 4 4 5 5 6 6 6 6 7 6 6 6 6 7 7 6 6 6
7 5 6 6 6 6 4 6 5 7 7 6 4 4 4 4 4 5 7 7 5 3 6 8 6 7 8 12 9 7 7 6 6 8 7 5 3 5 4 3 3 3 2 2 2 0 1 2 1 0 0 0 1 0 1 2 3 1 1 1 1 1 1 2 3 3 3 3 3 4 4 5 5 5 6 6 6 6 7 7 7 6 6 6 7 6 5
5 6 5 4 8 5 7 7 8 7 6 5 6 6 2 4 5 6 6 7 6 4 5 6 7 7 9 11 11 9 4 4 4 6 7 5 7 8 5 4 4 2 1 1 1 0 1 2 1 0 1 1 1 0 0 1 2 1 2 1 2 1 2 2 2 4 4 4 4 4 4 5 5 6 6 6 6 6 5 6 6 6 6 6 6 7 6
5 4 3 5 5 4 4 4 6 5 5 7 6 5 3 4 5 9 8 7 5 6 6 4 7 8 8 8 9 9 5 3 4 5 3 4 5 2 3 2 1 1 2 1 0 1 1 1 1 0 1 1 1 0 0 2 1 1 1 1 1 2 2 3 3 4 4 4 4 5 5 5 5 6 6 6 6 6 6 6 6 6 6 6 6 4 4
4 4 4 5 5 4 5 5 4 6 6 6 6 5 6 4 6 9 6 5 4 5 7 7 6 10 9 9 9 8 6 5 4 2 2 1 2 2 3 1 1 1 2 2 2 1 0 0 1 2 2 1 1 1 2 1 1 1 1 1 2 2 2 2 3 3 2 3 5 5 4 4 5 6 6 6 6 6 6 6 6 6 6 6 5 4 4
4 4 3 4 4 5 4 5 5 6 6 5 5 6 6 6 6 7 7 6 7 7 8 7 8 9 9 10 8 8 4 2 3 3 3 0 1 2 2 3 2 0 2 1 0 0 0 0 0 1 2 2 1 2 3 2 1 2 1 1 1 2 2 2 3 3 4 4 5 5 5 5 5 6 6 6 6 6 6 6 6 5 4 4 4 4 4
4 4 3 5 5 4 4 5 7 6 7 5 4 4 6 6 5 6 8 8 8 7 7 6 7 8 7 6 6 4 2 1 2 1 3 4 3 1 1 0 0 1 2 1 0 0 0 0 0 2 3 5 5 4 2 2 2 2 2 1 2 2 3 4 4 4 5 5 5 5 6 5 6 6 6 6 6 6 6 6 6 5 4 4 4 4 4
4 4 4 5 5 4 4 4 6 7 5 4 4 6 7 7 6 5 6 7 8 7 5 5 4 3 3 2 3 2 2 1 2 1 2 3 3 2 2 2 1 1 1 2 1 1 1 1 2 4 4 5 5 5 3 2 3 3 3 3 3 2 3 5 6 5 5 6 6 6 5 6 6 5 6 6 6 6 7 7 7 6 6 6 6 5 5
4 4 4 4 7 6 4 6 5 5 6 6 7 7 7 7 6 6 5 6 7 5 4 4 4 4 4 4 4 3 2 1 0 1 1 1 1 1 1 1 0 1 2 3 1 1 1 3 5 5 5 6 5 4 3 3 2 3 3 4 5 4 5 6 6 5 5 6 6 6 6 6 5 6 6 6 6 6 6 6 6 6 6 7 7 7 7
3 4 6 5 7 6 5 5 4 4 5 7 10 6 4 6 6 4 5 6 7 6 5 4 4 3 3 2 1 2 3 2 2 1 1 1 0 1 0 1 2 3 2 1 1 1 1 2 3 5 5 6 6 3 3 3 3 4 5 5 5 5 5 6 6 6 5 6 6 6 6 6 6 6 5 6 6 6 6 6 6 6 6 6 7 6 7
5 6 5 4 6 4 5 5 6 6 6 6 4 3 1 2 4 4 3 4 4 4 4 3 2 2 1 1 0 1 2 1 3 1 1 0 0 0 0 1 2 2 3 3 4 4 5 6 6 6 5 6 4 4 4 4 4 5 5 5 5 5 6 6 6 5 5 5 6 5 5 5 6 6 6 6 6 6 6 6 6 6 6 6 6 6 6
4 5 3 3 4 5 5 4 5 5 4 2 3 2 2 4 5 5 4 4 4 4 3 3 4 3 1 1 1 1 0 2 1 1 1 1 0 1 1 1 3 3 3 2 2 2 3 5 5 6 6 5 4 4 5 5 5 5 5 5 5 6 6 6 6 5 5 5 6 6 6 6 6 5 6 6 6 6 6 6 6 6 6 6 7 6 7
2 3 3 3 3 3 2 2 2 2 3 3 3 3 1 0 3 2 2 2 2 1 2 2 2 1 1 2 1 0 1 0 1 1 1 2 2 2 2 2 2 4 4 3 2 2 2 3 4 4 4 4 4 4 4 4 4 4 4 5 5 6 6 6 7 7 7 6 6 6 6 6 6 6 6 6 6 6 6 7 7 8 9 7 7 7 7
2 2 2 2 2 3 4 4 2 2 2 3 3 1 1 2 2 2 2 2 1 1 1 2 1 1 1 0 1 0 0 1 1 2 1 1 1 2 3 3 3 3 3 2 2 3 3 2 2 3 4 4 4 4 4 4 5 5 6 6 5 6 6 6 5 6 6 5 5 6 6 6 6 5 6 6 6 6 6 6 6 7 6 6 6 7 7
4 3 3 3 3 3 3 3 3 3 2 2 1 1 1 2 2 2 2 3 1 1 0 1 1 0 0 0 0 1 0 0 0 0 1 1 1 2 2 3 2 2 2 3 3 2 3 3 4 5 5 5 4 4 4 5 5 5 6 5 6 6 6 5 5 5 6 5 6 6 6 6 6 6 6 6 6 6 6 6 7 7 6 6 6 7 7
Wind_Direction
227 98 226 197 211 201 194 193 188 191 191 185 199 214 212 156 204 232 122 172 209 224 173 193 191 195 198 193 194 191 174 155 157 164 179 190 198 196 197 204 204 204 199 192 188 185 186 182 188 191 189 188 185 189 193 192 191 192 183 180 184 187 189 193 193 188 183 174 166 144 138 142 151 157 158 158 159 154 151 151 159 196 225 242 251 249 248
226 217 183 177 199 177 246 211 206 199 189 195 196 208 207 198 227 235 223 185 229 208 136 180 200 170 161 148 109 125 151 170 171 178 188 195 197 199 204 207 208 207 203 193 187 185 187 191 192 191 188 188 192 194 199 198 192 190 176 188 187 184 185 192 187 183 179 169 166 150 151 160 164 164 162 163 164 158 153 158 178 207 222 250 248 254 253
227 201 172 160 196 173 216 232 222 214 204 184 196 206 207 216 242 247 188 259 250 174 162 174 97 119 99 114 160 174 172 164 174 183 192 197 200 202 209 211 208 200 196 190 183 188 191 191 192 190 192 192 194 200 202 198 194 186 179 183 186 184 191 192 184 178 176 176 170 166 164 164 163 162 164 162 164 158 154 164 189 205 228 234 239 245 244
234 184 180 192 198 326 251 251 235 211 150 164 196 204 209 198 216 227 243 247 249 161 164 104 140 147 165 171 173 172 185 183 176 183 192 193 198 203 206 208 206 206 200 194 193 196 196 194 192 192 194 196 197 204 199 196 189 170 176 183 189 196 196 187 182 177 183 176 175 171 162 167 162 163 156 158 165 162 165 174 196 199 224 234 238 244 244
224 192 179 179 122 214 280 238 225 197 182 186 171 218 208 206 196 200 212 233 241 184 158 148 181 183 189 182 171 185 179 178 179 186 186 189 195 197 195 197 202 202 200 199 198 197 193 193 194 198 194 192 200 198 192 188 162 171 186 191 196 199 194 186 181 183 186 181 179 169 170 162 160 155 160 167 167 168 177 176 180 207 222 224 231 238 246
179 173 161 132 165 211 230 274 162 187 195 196 193 212 211 212 197 209 207 225 132 143 167 179 182 186 203 195 200 167 167 173 190 196 198 202 188 183 191 195 195 199 199 203 203 202 199 198 199 195 193 199 200 192 186 177 177 181 185 195 198 201 194 190 186 186 186 177 179 175 164 159 164 169 171 182 175 169 160 171 193 212 219 221 233 235 241
175 151 133 169 207 228 45 306 331 215 200 190 202 215 207 208 213 220 264 167 176 176 171 181 185 188 118 44 187 199 205 183 175 187 204 205 185 198 197 198 202 200 198 195 197 201 205 199 189 183 194 196 187 176 177 180 183 182 191 195 200 201 196 191 185 185 182 184 184 171 165 166 168 175 175 172 164 173 172 184 193 206 214 217 224 230 239
58 153 178 204 223 39 44 5 2 58 62 175 202 238 237 217 206 210 225 225 198 148 140 85 74 117 115 73 262 237 214 185 177 187 198 187 184 192 198 192 195 188 191 193 193 198 179 168 181 187 192 184 183 186 179 181 181 187 188 195 203 198 195 189 188 189 180 185 181 170 172 173 176 180 175 175 173 171 168 185 196 204 224 216 222 225 232
186 195 200 235 22 308 160 102 191 168 165 165 176 208 230 210 203 199 213 226 196 120 118 112 104 94 95 270 255 205 203 195 212 200 189 175 184 188 176 186 194 183 179 179 179 151 165 175 177 186 174 169 175 170 173 184 176 183 185 197 203 200 203 196 190 187 185 184 179 174 173 172 180 180 171 173 174 166 173 194 194 205 204 213 217 223 228
142 150 188 287 250 243 221 166 186 215 3 130 175 198 256 85 199 187 191 213 204 141 113 119 122 140 146 249 246 174 192 194 195 197 155 136 163 170 142 139 124 157 160 146 152 166 170 178 179 166 164 165 169 169 177 173 173 182 187 203 204 197 202 197 190 187 187 179 171 173 172 184 178 179 171 172 172 174 183 188 205 201 205 214 220 223 223
136 199 216 209 216 243 87 136 107 10 200 125 109 89 259 140 176 185 187 204 187 160 149 151 149 142 206 235 233 134 178 180 177 186 206 189 177 165 180 182 182 169 159 158 158 159 162 173 176 166 162 161 162 176 175 172 177 181 198 205 199 198 205 196 184 177 176 174 177 175 180 183 169 171 175 174 161 164 185 194 207 199 209 221 219 227 221
197 201 219 226 229 260 81 206 128 208 258 149 101 247 267 162 202 184 173 195 168 142 139 148 167 170 213 227 224 142 169 177 176 186 187 180 185 202 190 203 146 121 131 131 147 170 186 193 164 162 160 164 176 177 177 168 179 197 204 203 201 198 185 165 168 169 176 175 178 173 178 158 163 170 151 151 169 177 185 195 203 203 208 220 219 231 221
210 211 235 1 275 230 140 150 185 190 272 125 178 223 116 163 160 172 180 191 135 140 146 173 174 221 209 42 73 122 120 125 171 198 172 171 184 184 175 166 145 144 165 176 178 187 196 170 155 163 159 159 177 187 169 175 200 207 206 192 176 175 164 159 166 167 171 177 177 175 159 160 155 149 165 171 166 177 183 201 203 212 212 226 230 232 221
218 224 234 245 296 206 137 334 129 224 132 182 199 184 6 147 181 200 199 146 157 161 174 186 213 111 105 104 84 129 159 169 164 156 162 150 147 65 83 134 161 161 175 197 203 197 170 152 159 161 164 174 187 168 170 200 210 204 168 158 163 156 160 167 160 157 159 156 148 152 143 143 150 162 169 161 167 174 195 199 201 217 219 227 230 233 231
61 92 251 237 246 136 136 122 62 302 171 280 96 111 69 74 166 162 203 186 174 176 190 207 147 105 145 151 167 173 161 162 152 159 168 184 180 172 154 165 200 180 175 196 204 199 170 161 170 168 171 181 186 177 188 213 197 145 157 151 154 157 156 153 158 156 159 155 150 147 148 155 144 161 157 164 173 177 195 203 212 224 226 225 230 236 233
171 188 205 208 252 129 172 149 175 188 189 152 140 126 134 139 173 182 173 201 194 197 181 174 165 142 158 178 157 169 178 173 99 130 170 167 172 179 199 189 173 183 202 200 203 196 164 167 172 171 176 186 186 185 214 200 122 133 141 151 147 151 157 158 151 162 157 150 143 151 150 154 162 156 170 168 176 196 194 206 219 222 231 212 222 229 234
169 200 202 42 272 157 180 95 349 130 132 115 156 127 145 150 214 201 194 192 184 200 191 169 159 160 203 195 182 178 191 187 184 177 187 186 190 191 185 198 169 181 205 205 205 195 187 171 186 186 195 190 189 202 215 148 161 158 153 141 152 152 165 163 165 158 150 158 157 157 156 158 165 176 170 167 189 197 191 214 221 231 239 221 238 251 251
83 36 137 34 45 162 166 59 359 110 124 84 91 141 136 232 175 171 186 192 173 179 177 141 180 192 184 189 200 213 211 197 195 176 159 219 226 209 172 173 185 200 207 229 223 221 206 182 191 192 198 201 196 218 171 169 161 146 150 155 166 176 163 168 167 149 153 153 161 163 166 179 185 182 172 179 197 190 192 211 211 221 240 227 236 245 248
127 235 102 156 150 127 198 154 61 23 60 139 151 181 187 172 159 185 262 155 168 165 168 191 170 196 181 185 197 203 206 203 201 193 202 205 194 186 194 210 178 176 191 211 221 222 225 197 192 200 204 213 222 206 165 153 150 148 160 165 168 165 176 170 160 165 166 171 169 169 181 182 190 190 189 189 196 203 201 207 208 213 225 226 240 241 251
200 359 121 247 330 284 303 241 159 178 158 160 184 278 322 28 157 153 134 107 103 140 177 204 181 192 175 179 200 198 207 205 198 202 212 211 194 213 213 185 182 194 194 210 220 220 228 217 188 201 205 217 222 202 156 153 146 153 169 182 182 180 175 168 170 177 182 174 170 172 183 181 182 186 192 195 199 206 201 201 200 214 205 218 225 240 256
99 26 312 275 313 243 210 209 253 189 163 159 170 194 144 117 137 145 125 257 159 174 193 178 196 199 199 196 198 196 203 204 211 215 214 210 208 199 190 204 192 203 206 213 222 221 229 224 195 202 216 224 216 196 167 151 163 174 186 192 192 173 170 168 179 172 179 165 185 174 167 181 207 195 185 190 203 223 225 217 224 218 222 231 220 224 230
206 183 178 174 127 226 196 211 215 194 185 168 167 164 191 185 154 161 166 201 166 209 220 180 185 201 213 204 198 211 211 203 205 205 214 213 208 217 213 185 200 220 224 220 223 226 235 223 204 210 217 217 204 179 163 164 170 186 192 176 180 179 176 180 171 168 183 178 177 175 171 182 190 234 246 226 216 212 224 219 227 235 229 228 220 217 241
207 193 157 187 135 85 194 200 206 172 157 163 173 192 196 199 192 173 163 159 176 214 228 210 188 206 211 211 189 213 225 222 213 205 201 202 208 224 208 204 218 218 225 225 231 239 239 223 216 217 220 211 191 181 174 172 184 196 183 180 190 181 170 196 180 171 167 166 171 180 177 178 182 196 205 223 229 230 229 228 232 237 241 246 247 237 229
19 178 171 172 156 176 189 193 207 180 169 170 198 213 203 184 178 179 196 196 188 209 201 196 209 213 218 216 178 215 234 232 208 208 219 222 220 213 191 207 224 225 235 230 227 233 240 228 225 221 227 218 191 166 162 162 183 196 193 189 192 189 179 170 146 171 171 168 159 174 179 179 186 188 207 224 230 222 230 239 241 247 252 255 256 260 266
187 173 172 179 183 147 47 173 190 167 164 178 189 216 207 193 184 176 192 210 221 204 187 199 208 208 212 224 197 212 222 228 210 212 224 223 232 216 219 216 226 220 226 225 231 241 243 231 226 223 227 223 166 159 162 162 184 198 200 204 201 159 144 154 168 177 181 174 181 179 178 176 180 187 202 209 229 218 192 208 229 245 252 253 257 261 260
138 134 115 96 70 101 128 72 309 203 201 186 208 252 239 209 189 176 202 204 204 205 211 213 196 201 204 217 215 219 234 243 226 184 180 202 205 205 222 221 226 225 235 233 234 235 235 227 226 216 228 209 166 160 148 157 182 192 183 189 171 170 164 166 170 179 182 185 180 186 184 180 183 183 201 204 213 217 248 247 205 212 216 228 230 239 264
77 130 112 77 23 216 190 177 209 193 179 185 198 217 219 142 176 188 199 221 228 211 211 226 229 201 200 224 228 227 221 241 194 204 213 222 223 222 229 247 238 228 227 240 245 244 242 236 224 227 240 100 100 119 140 149 151 167 168 163 140 130 145 165 172 170 170 178 182 178 175 180 180 190 199 200 199 206 221 232 241 232 205 203 215 234 251
164 187 161 175 200 203 197 214 229 151 134 178 195 215 154 116 124 157 214 230 236 233 233 227 212 203 217 219 198 231 232 231 233 221 203 226 234 37 68 82 345 205 229 234 284 10 24 12 258 218 36 65 107 115 132 139 157 135 134 138 137 142 144 161 167 168 173 175 178 183 182 187 182 191 189 193 197 217 224 234 243 256 273 253 232 233 262
206 189 224 220 217 193 81 95 131 176 193 195 202 111 132 163 198 202 226 221 221 210 237 230 204 216 221 225 187 220 231 228 232 230 225 153 87 85 72 84 78 68 76 75 63 48 75 90 120 134 101 84 101 120 130 121 141 145 140 140 156 153 153 157 159 168 159 162 172 183 186 173 178 187 196 205 214 219 221 222 231 241 251 279 297 294 235
189 202 207 234 241 205 179 217 213 187 158 174 172 208 206 192 216 235 229 235 221 224 236 233 175 212 210 224 219 216 222 232 239 120 91 73 60 53 62 86 96 81 87 95 83 85 116 111 95 92 99 129 125 123 128 139 132 115 121 126 140 148 154 133 142 154 162 183 180 183 196 192 192 194 197 203 209 214 220 225 229 233 242 244 246 264 258
198 199 208 231 249 256 228 242 252 214 155 178 192 190 204 207 221 235 240 236 230 237 248 231 225 224 193 215 221 218 230 187 101 87 75 80 73 62 70 151 199 225 192 133 126 105 93 85 80 79 95 123 126 127 137 138 132 127 132 143 141 156 163 166 176 173 185 180 183 195 202 197 204 198 203 208 210 219 223 228 231 240 243 245 243 238 243
155 206 235 262 268 257 261 262 259 243 208 168 159 196 202 192 212 226 234 233 228 226 239 245 229 229 231 200 162 157 138 102 89 84 71 73 71 48 33 39 71 80 77 89 96 98 102 97 83 77 93 109 119 124 125 132 135 142 150 140 138 153 186 194 204 199 188 192 192 202 200 198 211 202 216 219 221 222 221 219 233 233 237 239 242 241 235
131 112 286 255 278 288 259 254 230 242 218 197 211 215 212 213 221 229 229 227 236 235 224 236 238 237 205 155 145 134 118 101 83 84 86 70 65 46 39 63 70 79 83 82 91 89 95 102 110 106 93 105 110 118 118 122 132 142 141 153 155 168 164 204 207 215 200 198 217 217 214 213 218 214 225 226 229 230 236 238 240 245 246 243 248 250 231
182 198 208 194 182 201 221 238 226 233 238 220 224 224 222 221 222 233 241 234 222 223 224 229 223 167 131 142 137 132 133 127 144 140 125 125 111 73 62 71 80 84 85 91 89 86 81 94 107 110 108 103 105 102 112 120 147 126 134 133 162 166 179 197 215 221 228 223 231 231 229 219 230 240 243 235 242 241 237 242 246 248 254 253 250 248 247
210 227 204 137 190 214 224 226 213 210 218 220 224 225 227 232 226 234 244 232 230 233 225 99 100 109 117 119 132 148 167 184 156 127 135 137 133 127 119 109 102 89 75 56 57 61 68 82 90 100 108 104 111 128 136 159 156 149 142 162 177 195 200 203 208 223 233 239 242 238 236 235 239 237 243 244 247 247 246 242 245 244 247 255 257 250 248
255 248 42 100 44 304 186 357 20 267 211 218 218 211 220 232 234 244 250 244 37 60 98 95 107 103 95 117 126 134 137 106 101 115 122 123 130 131 120 117 112 94 89 68 48 45 63 82 84 104 106 124 129 138 158 159 146 144 154 175 190 202 210 220 231 246 245 251 251 249 250 249 251 250 250 249 248 246 246 246 244 244 245 254 257 260 259
24 60 81 79 44 49 54 43 22 7 20 49 59 26 41 19 29 27 34 49 32 42 92 123 116 101 86 56 66 65 62 88 106 118 120 118 116 112 105 89 81 106 118 98 72 75 72 75 77 81 75 93 95 96 119 164 165 169 170 180 196 209 213 218 224 226 244 246 248 251 255 255 251 250 244 240 247 246 245 247 248 245 251 255 260 263 264
25 35 45 53 38 61 56 36 14 17 52 73 40 39 40 67 44 53 43 45 40 53 63 72 94 106 108 97 67 61 56 57 89 102 105 107 114 108 95 102 106 130 104 95 126 109 52 51 46 42 30 45 70 87 104 170 166 156 173 180 182 201 210 231 239 249 254 251 245 254 251 251 254 255 254 249 246 247 248 247 249 251 256 257 258 258 258
53 56 61 65 70 73 74 48 39 34 30 95 97 61 51 70 83 88 64 48 35 62 89 95 110 92 89 88 89 70 52 72 97 105 104 92 83 95 75 49 42 34 51 65 101 18 14 8 47 28 44 63 107 153 172 205 188 184 174 170 177 200 221 232 245 253 256 260 256 254 252 252 253 253 257 258 259 256 252 247 251 252 252 256 258 257 250
32 30 15 33 51 60 73 62 48 50 36 43 76 76 41 75 72 81 80 62 29 39 101 115 112 106 103 96 104 100 115 87 91 101 102 104 102 104 109 81 53 27 30 55 18 37 7 8 13 347 3 1 342 317 205 197 213 198 198 201 202 212 223 229 244 253 257 254 251 245 243 250 250 254 259 260 261 255 257 257 248 246 248 251 256 260 259
34 32 42 60 74 72 70 86 73 50 37 25 27 29 39 88 99 84 68 73 36 29 55 86 112 101 113 122 116 108 101 68 81 90 107 119 103 113 107 120 61 41 11 26 24 20 360 356 350 333 327 301 279 252 123 188 201 196 208 204 218 228 239 237 239 245 247 250 249 254 256 257 259 256 255 256 255 258 255 254 256 254 254 258 257 247 244
11 46 70 76 78 79 82 81 101 80 46 28 23 33 44 59 88 97 100 92 77 67 73 58 68 101 107 95 93 91 82 58 84 67 14 63 109 134 115 107 103 55 8 41 21 25 349 322 282 279 267 268 260 229 231 213 203 216 210 222 228 230 236 232 239 245 234 244 254 256 261 258 257 262 262 259 260 258 258 257 260 260 259 255 248 243 243
15 39 62 75 82 80 93 91 81 96 89 51 35 26 45 62 86 93 93 92 98 101 87 84 89 94 101 111 118 107 87 12 53 39 71 31 315 343 30 117 121 250 325 347 238 227 273 262 265 259 275 273 266 264 242 242 226 215 221 228 227 241 246 243 253 254 258 258 257 259 258 258 259 261 264 264 263 263 261 257 259 254 245 241 240 239 239
15 41 65 84 86 93 103 104 106 92 84 63 31 38 44 44 63 95 103 102 99 94 104 105 106 102 109 121 116 111 114 126 110 88 110 101 71 349 241 333 356 266 280 277 333 310 315 304 280 264 258 253 254 250 252 251 244 247 236 226 243 245 255 256 255 252 256 258 260 260 259 255 256 258 259 262 262 264 260 259 261 252 248 249 248 247 247
20 50 75 85 98 100 89 82 94 94 97 112 80 52 30 42 51 59 89 97 99 98 91 97 97 107 124 113 97 84 106 90 117 169 126 126 121 126 167 201 217 201 260 258 283 276 284 257 258 259 260 259 253 245 247 242 240 244 249 246 233 228 241 251 252 253 255 258 259 259 256 256 255 251 251 255 251 255 259 260 264 261 261 262 263 255 242
47 41 69 79 71 76 80 93 98 106 110 100 81 57 38 25 37 35 42 68 80 75 71 76 79 68 70 84 84 73 65 54 174 284 343 360 66 100 106 184 197 227 275 279 279 272 266 261 270 277 268 264 266 260 252 252 250 248 241 246 249 244 244 251 251 252 255 258 258 258 258 257 253 248 250 253 253 252 255 255 258 258 253 255 256 261 267
84 76 69 91 91 93 103 103 107 98 85 77 66 67 19 13 30 49 22 22 52 38 42 51 65 61 50 73 117 134 136 111 64 59 206 251 251 294 222 274 288 285 284 276 287 275 282 284 272 270 271 274 273 275 269 261 254 255 254 253 255 253 253 253 252 254 256 255 253 254 253 252 253 257 252 248 249 249 253 251 251 254 257 258 261 259 256
89 94 93 96 102 92 79 76 77 77 79 91 108 97 88 50 67 48 43 67 78 68 51 31 22 7 16 22 347 327 355 87 113 101 135 116 54 32 258 229 246 275 289 295 291 288 284 283 286 287 290 292 286 271 270 265 261 255 255 255 254 256 258 259 258 255 253 251 251 253 256 251 250 248 252 252 254 253 252 253 255 258 257 256 259 261 260
80 98 105 87 79 81 90 97 102 101 100 109 105 102 107 109 97 77 72 75 91 90 80 51 24 2 319 270 322 345 138 329 353 118 120 145 242 295 292 275 292 296 296 282 282 279 278 285 299 299 298 292 285 279 273 267 261 258 256 254 257 256 256 255 257 258 257 255 254 253 255 256 257 257 257 256 258 259 258 257 259 257 262 266 268 266 263
48 49 51 46 61 67 81 97 82 97 113 111 106 109 132 145 86 65 57 44 45 67 71 54 52 43 5 2 353 351 341 338 272 280 245 234 233 251 271 274 268 256 252 264 262 276 297 311 314 307 296 282 276 277 273 265 261 256 255 256 255 260 254 255 258 254 255 259 258 257 257 257 259 257 261 264 264 263 264 266 268 267 266 263 264 265 265
50 57 47 50 55 54 26 36 59 88 110 111 108 83 41 65 81 70 46 23 16 85 81 84 86 50 345 332 17 55 130 190 226 244 246 258 247 243 241 245 243 250 272 286 299 309 311 310 294 285 277 274 273 275 272 273 273 269 262 262 262 265 269 262 262 262 261 263 268 267 266 267 265 264 264 265 264 266 265 265 265 267 265 261 259 261 263
68 72 74 79 76 64 66 56 53 65 68 91 83 79 70 86 87 78 48 30 35 58 102 152 150 175 185 293 326 344 301 276 230 235 241 241 256 268 264 262 270 277 290 303 309 305 293 289 287 280 277 276 273 276 279 280 276 276 279 277 272 271 267 272 274 275 274 275 271 272 271 268 270 271 267 263 261 262 262 262 263 265 263 263 263 264 266